Вернуться в каталог

FENGYUN 1C DEB

АктивенPO
NORAD 30912·DEBRIS·🇨🇳 China

Запущен May 10, 1999 с Taiyuan Satellite Launch Center

Loading…

Ближайшие Пролёты (ближайшие 24 часа)

TLE

СвежийSource: Space-Track

Эпоха: Sep 14, 2026, 15:28 UTC

1 30912U 99025AZA 26257.64488206  .00010456  00000-0  90517-3 0  9991
2 30912  98.9676 143.0246 0049211 293.7247  65.8813 14.96441323 35199

Отслеживайте FENGYUN 1C DEB в реальном времени с AllMySat

Download on the App Store